Starlink 3828

operational
NORAD ID: 52469 Int'l Des: 2022-049 Owner: SPXS Country: US Constellation: starlink
LEOCIRCULAR

Starlink 3828について

説明を読み込み中...

リアルタイム位置

3D地球を読み込み中...

次回通過

高度履歴

Altitude vs Time

uPlot chart will show altitude changes over time

軌道要素

1 52469U 22049U 25352.57980229 -.00001716 00000-0 -89752-4 0 9994
2 52469 53.2207 63.2438 0001428 90.8418 269.2737 15.08832462200005
Epoch: Dec 18, 2025 • Age: 11 hours

現在のステータス

高度 553.7 km
速度 7.58 km/s
衛星直下点 -39.88°S, 77.23°W
打ち上げ日 May 6, 2022
運用期間 3.6 years
タイプ internet

技術仕様

分類 Payload
質量 297.00 kg
乾燥質量 220.00 kg
総質量 297.00 kg
長さ 0.20 m
直径 2.80 m
スパン 9.00 m
形状 Box + pan
製造者 SPXS
バスタイプ Starlink
フェーズステータス In Orbit
所有者/国 SPXS/US

大規模コンステレーション

Loading constellations...